Погода в Чивитанова-Марке

Италия     43°18′24″N   13°43′39″E
темп.,
°C
ветер,
м/с
пор.,
м/с
влажн.,
%
обл.,
%
осадки,
мм/ч
давл.,
гПа
погр.,
м
25 мая, ср
ср2523:00+20зюз11744 0.0 100811
02:00+19зсз22695 0.0 100918
05:00+18зсз226545 0.0 101047
08:00+20зсз2261100 0.0 101173
11:00+24с326121 0.0 1012361
14:00+24св326952 0.0 1012430
17:00+24вюв3368100 0.0 1012197
20:00+21юв2280100 0.0 101323
26 мая, чт
чт2623:00+20ююз117953 0.0 101511
02:00+19зсз3384100 0.0 101734
05:00+18сз2286100 0.0 101761
08:00+21сз2380100 0.0 1019180
11:00+22ссв3374100 0.0 1020422
14:00+22всв437256 0.0 1020320
17:00+22всв226862 0.0 1019246
20:00+20св1180100 0.4 101918
27 мая, пт
пт2723:00+19ссз1182100 0.0 102011
02:00+19з1181100 0.0 101921
05:00+19зюз1180100 0.0 101927
08:00+21зсз017591 0.0 101991
11:00+23вюв5566100 0.0 1017252
14:00+24вюв336395 0.0 1017323
17:00+23вюв3367100 0.0 1015194
20:00+21вюв1175100 0.0 101311
28 мая, сб
сб2823:00+20з3475100 0.0 101457
02:00+20юз2268100 0.0 101230
05:00+20зюз226599 0.0 101120
08:00+22зсз1164100 0.0 101082
11:00+24св3258100 0.0 1009404
14:00+23св4364100 0.0 1009417
17:00+23в34629 0.0 1007360
20:00+20ссз458196 0.0 1008180
29 мая, вс
вс2923:00+18сз4689100 0.0 1009168
02:00+18ссв6674100 0.0 1009569
05:00+18сз4573100 0.0 1009611
08:00+17ссз446790 0.0 1009734
11:00+20сз445785 0.0 10081125
14:00+19ссз5564100 0.1 1008961
17:00+19сз667086 0.1 10081021
20:00+17сз6874100 0.6 1009692